Time,TemperatureF,DewpointF,PressureIn,WindDirection,WindDirectionDegrees,WindSpeedMPH,WindSpeedGustMPH,Humidity,HourlyPrecipIn,Conditions,Clouds,dailyrainin,SolarRadiationWatts/m^2,SoftwareType,DateUTC
2013-03-02 00:01:00,47.0,31.0,-100.00,SW,231,4.0,7.0,53,0.00,,,0.00,0.000000,,2013-03-02 08:01:00,
2013-03-02 00:11:00,47.0,31.0,-100.00,SW,231,4.0,7.0,53,0.00,,,0.00,0.000000,,2013-03-02 08:11:00,
2013-03-02 00:21:00,47.0,31.0,-100.00,SW,231,4.0,7.0,53,0.00,,,0.00,0.000000,,2013-03-02 08:21:00,
2013-03-02 00:31:00,47.0,31.0,-100.00,SW,231,4.0,7.0,53,0.00,,,0.00,0.000000,,2013-03-02 08:31:00,
2013-03-02 00:52:00,47.0,33.0,-100.00,WSW,237,4.0,7.0,58,0.00,,,0.00,0.000000,,2013-03-02 08:52:00,
2013-03-02 01:01:00,47.0,33.0,-100.00,WSW,237,4.0,7.0,58,0.00,,,0.00,0.000000,,2013-03-02 09:01:00,
2013-03-02 01:11:00,47.0,33.0,-100.00,WSW,237,4.0,7.0,58,0.00,,,0.00,0.000000,,2013-03-02 09:11:00,
2013-03-02 01:21:00,47.0,33.0,-100.00,WSW,237,4.0,7.0,58,0.00,,,0.00,0.000000,,2013-03-02 09:21:00,
2013-03-02 01:31:00,47.0,33.0,-100.00,WSW,237,4.0,7.0,58,0.00,,,0.00,0.000000,,2013-03-02 09:31:00,
2013-03-02 01:52:00,47.0,33.0,-100.00,SSW,207,3.0,8.0,59,0.00,,,0.00,0.000000,,2013-03-02 09:52:00,
2013-03-02 02:01:00,47.0,33.0,-100.00,SSW,207,3.0,8.0,59,0.00,,,0.00,0.000000,,2013-03-02 10:01:00,
2013-03-02 02:31:00,47.0,33.0,-100.00,SSW,207,3.0,8.0,59,0.00,,,0.00,0.000000,,2013-03-02 10:31:00,
2013-03-02 02:52:00,46.0,32.0,-100.00,WSW,240,5.0,8.0,59,0.00,,,0.00,0.000000,,2013-03-02 10:52:00,
2013-03-02 03:01:00,46.0,32.0,-100.00,WSW,240,5.0,8.0,59,0.00,,,0.00,0.000000,,2013-03-02 11:01:00,
2013-03-02 03:11:00,46.0,32.0,-100.00,WSW,240,5.0,8.0,59,0.00,,,0.00,0.000000,,2013-03-02 11:11:00,
2013-03-02 03:21:00,46.0,32.0,-100.00,WSW,240,5.0,8.0,59,0.00,,,0.00,0.000000,,2013-03-02 11:21:00,
2013-03-02 03:31:00,46.0,32.0,-100.00,WSW,240,5.0,8.0,59,0.00,,,0.00,0.000000,,2013-03-02 11:31:00,
2013-03-02 03:52:00,46.0,32.0,-100.00,SW,233,5.0,9.0,58,0.00,,,0.00,0.000000,,2013-03-02 11:52:00,
2013-03-02 04:02:00,46.0,32.0,-100.00,SW,233,5.0,9.0,58,0.00,,,0.00,0.000000,,2013-03-02 12:02:00,
2013-03-02 04:11:00,46.0,32.0,-100.00,SW,233,5.0,9.0,58,0.00,,,0.00,0.000000,,2013-03-02 12:11:00,
2013-03-02 04:21:00,46.0,32.0,-100.00,SW,233,5.0,9.0,58,0.00,,,0.00,0.000000,,2013-03-02 12:21:00,
2013-03-02 04:32:00,46.0,32.0,-100.00,SW,233,5.0,9.0,58,0.00,,,0.00,0.000000,,2013-03-02 12:32:00,
2013-03-02 04:53:00,45.0,32.0,-100.00,WSW,252,5.0,9.0,61,0.00,,,0.00,0.000000,,2013-03-02 12:53:00,
2013-03-02 05:01:00,45.0,32.0,-100.00,WSW,252,5.0,9.0,61,0.00,,,0.00,0.000000,,2013-03-02 13:01:00,
2013-03-02 05:11:00,45.0,32.0,-100.00,WSW,252,5.0,9.0,61,0.00,,,0.00,0.000000,,2013-03-02 13:11:00,
2013-03-02 05:21:00,45.0,32.0,-100.00,WSW,252,5.0,9.0,61,0.00,,,0.00,0.000000,,2013-03-02 13:21:00,
2013-03-02 05:31:00,45.0,32.0,-100.00,WSW,252,5.0,9.0,61,0.00,,,0.00,0.000000,,2013-03-02 13:31:00,
2013-03-02 05:52:00,45.0,32.0,-100.00,WSW,250,5.0,9.0,61,0.00,,,0.00,0.000000,,2013-03-02 13:52:00,
2013-03-02 06:01:00,45.0,32.0,-100.00,WSW,250,5.0,9.0,61,0.00,,,0.00,0.000000,,2013-03-02 14:01:00,
2013-03-02 06:11:00,45.0,32.0,-100.00,WSW,250,5.0,9.0,61,0.00,,,0.00,0.000000,,2013-03-02 14:11:00,
2013-03-02 06:21:00,45.0,32.0,-100.00,WSW,250,5.0,9.0,61,0.00,,,0.00,0.000000,,2013-03-02 14:21:00,
2013-03-02 06:31:00,45.0,32.0,-100.00,WSW,250,5.0,9.0,61,0.00,,,0.00,0.000000,,2013-03-02 14:31:00,
2013-03-02 06:52:00,45.0,32.0,-100.00,SW,236,4.0,10.0,61,0.00,,,0.00,0.000000,,2013-03-02 14:52:00,
2013-03-02 07:01:00,45.0,32.0,-100.00,SW,236,4.0,10.0,61,0.00,,,0.00,0.000000,,2013-03-02 15:01:00,
2013-03-02 07:11:00,45.0,32.0,-100.00,SW,236,4.0,10.0,61,0.00,,,0.00,0.000000,,2013-03-02 15:11:00,
2013-03-02 07:21:00,45.0,32.0,-100.00,SW,236,4.0,10.0,61,0.00,,,0.00,0.000000,,2013-03-02 15:21:00,
2013-03-02 07:31:00,45.0,32.0,-100.00,SW,236,4.0,10.0,61,0.00,,,0.00,0.000000,,2013-03-02 15:31:00,
2013-03-02 07:52:00,45.0,33.0,-100.00,West,264,5.0,10.0,62,0.00,,,0.00,13.000000,,2013-03-02 15:52:00,
2013-03-02 08:01:00,45.0,33.0,-100.00,West,264,5.0,10.0,62,0.00,,,0.00,13.000000,,2013-03-02 16:01:00,
2013-03-02 08:11:00,45.0,33.0,-100.00,West,264,5.0,10.0,62,0.00,,,0.00,13.000000,,2013-03-02 16:11:00,
2013-03-02 08:21:00,45.0,33.0,-100.00,West,264,5.0,10.0,62,0.00,,,0.00,13.000000,,2013-03-02 16:21:00,
2013-03-02 08:31:00,45.0,33.0,-100.00,West,264,5.0,10.0,62,0.00,,,0.00,13.000000,,2013-03-02 16:31:00,
2013-03-02 08:52:00,45.0,31.0,-100.00,WSW,254,5.0,9.0,58,0.00,,,0.00,66.000000,,2013-03-02 16:52:00,
2013-03-02 09:01:00,45.0,31.0,-100.00,WSW,254,5.0,9.0,58,0.00,,,0.00,66.000000,,2013-03-02 17:01:00,
2013-03-02 09:11:00,45.0,31.0,-100.00,WSW,254,5.0,9.0,58,0.00,,,0.00,66.000000,,2013-03-02 17:11:00,
2013-03-02 09:21:00,45.0,31.0,-100.00,WSW,254,5.0,9.0,58,0.00,,,0.00,66.000000,,2013-03-02 17:21:00,
2013-03-02 09:31:00,45.0,31.0,-100.00,WSW,254,5.0,9.0,58,0.00,,,0.00,66.000000,,2013-03-02 17:31:00,
2013-03-02 09:52:00,45.0,33.0,-100.00,WSW,255,4.0,10.0,63,0.00,,,0.00,126.000000,,2013-03-02 17:52:00,
2013-03-02 10:01:00,45.0,33.0,-100.00,WSW,255,4.0,10.0,63,0.00,,,0.00,126.000000,,2013-03-02 18:01:00,
2013-03-02 10:11:00,45.0,33.0,-100.00,WSW,255,4.0,10.0,63,0.00,,,0.00,126.000000,,2013-03-02 18:11:00,
2013-03-02 10:22:00,45.0,33.0,-100.00,WSW,255,4.0,10.0,63,0.00,,,0.00,126.000000,,2013-03-02 18:22:00,
2013-03-02 10:31:00,45.0,33.0,-100.00,WSW,255,4.0,10.0,63,0.00,,,0.00,126.000000,,2013-03-02 18:31:00,
2013-03-02 10:52:00,46.0,31.0,-100.00,SW,223,6.0,12.0,56,0.00,,,0.00,161.000000,,2013-03-02 18:52:00,
2013-03-02 11:01:00,46.0,31.0,-100.00,SW,223,6.0,12.0,56,0.00,,,0.00,161.000000,,2013-03-02 19:01:00,
2013-03-02 11:11:00,46.0,31.0,-100.00,SW,223,6.0,12.0,56,0.00,,,0.00,161.000000,,2013-03-02 19:11:00,
2013-03-02 11:21:00,46.0,31.0,-100.00,SW,223,6.0,12.0,56,0.00,,,0.00,161.000000,,2013-03-02 19:21:00,
2013-03-02 11:31:00,46.0,31.0,-100.00,SW,223,6.0,12.0,56,0.00,,,0.00,161.000000,,2013-03-02 19:31:00,
2013-03-02 11:52:00,46.0,31.0,-100.00,SSW,211,7.0,15.0,55,0.00,,,0.00,158.000000,,2013-03-02 19:52:00,
2013-03-02 12:01:00,46.0,31.0,-100.00,SSW,211,7.0,15.0,55,0.00,,,0.00,158.000000,,2013-03-02 20:01:00,
2013-03-02 12:11:00,46.0,31.0,-100.00,SSW,211,7.0,15.0,55,0.00,,,0.00,158.000000,,2013-03-02 20:11:00,
2013-03-02 12:21:00,46.0,31.0,-100.00,SSW,211,7.0,15.0,55,0.00,,,0.00,158.000000,,2013-03-02 20:21:00,
2013-03-02 12:31:00,46.0,31.0,-100.00,SSW,211,7.0,15.0,55,0.00,,,0.00,158.000000,,2013-03-02 20:31:00,
2013-03-02 12:52:00,46.0,31.0,-100.00,SW,217,7.0,15.0,55,0.00,,,0.00,186.000000,,2013-03-02 20:52:00,
2013-03-02 13:02:00,46.0,31.0,-100.00,SW,217,7.0,15.0,55,0.00,,,0.00,186.000000,,2013-03-02 21:02:00,
2013-03-02 13:11:00,46.0,31.0,-100.00,SW,217,7.0,15.0,55,0.00,,,0.00,186.000000,,2013-03-02 21:11:00,
2013-03-02 13:21:00,46.0,31.0,-100.00,SW,217,7.0,15.0,55,0.00,,,0.00,186.000000,,2013-03-02 21:21:00,
2013-03-02 13:31:00,46.0,31.0,-100.00,SW,217,7.0,15.0,55,0.00,,,0.00,186.000000,,2013-03-02 21:31:00,
2013-03-02 13:52:00,47.0,31.0,-100.00,SW,221,4.0,11.0,53,0.00,,,0.00,129.000000,,2013-03-02 21:52:00,
2013-03-02 14:01:00,47.0,31.0,-100.00,SW,221,4.0,11.0,53,0.00,,,0.00,129.000000,,2013-03-02 22:01:00,
2013-03-02 14:11:00,47.0,31.0,-100.00,SW,221,4.0,11.0,53,0.00,,,0.00,129.000000,,2013-03-02 22:11:00,
2013-03-02 14:21:00,47.0,31.0,-100.00,SW,221,4.0,11.0,53,0.00,,,0.00,129.000000,,2013-03-02 22:21:00,
2013-03-02 14:31:00,47.0,31.0,-100.00,SW,221,4.0,11.0,53,0.00,,,0.00,129.000000,,2013-03-02 22:31:00,
2013-03-02 14:52:00,49.0,30.0,-100.00,WNW,287,5.0,9.0,47,0.00,,,0.00,130.000000,,2013-03-02 22:52:00,
2013-03-02 15:01:00,49.0,30.0,-100.00,WNW,287,5.0,9.0,47,0.00,,,0.00,130.000000,,2013-03-02 23:01:00,
2013-03-02 15:11:00,49.0,30.0,-100.00,WNW,287,5.0,9.0,47,0.00,,,0.00,130.000000,,2013-03-02 23:11:00,
2013-03-02 15:21:00,49.0,30.0,-100.00,WNW,287,5.0,9.0,47,0.00,,,0.00,130.000000,,2013-03-02 23:21:00,
2013-03-02 15:31:00,49.0,30.0,-100.00,WNW,287,5.0,9.0,47,0.00,,,0.00,130.000000,,2013-03-02 23:31:00,
2013-03-02 15:52:00,48.0,30.0,-100.00,WSW,258,6.0,11.0,49,0.00,,,0.00,105.000000,,2013-03-02 23:52:00,
2013-03-02 16:02:00,48.0,30.0,-100.00,WSW,258,6.0,11.0,49,0.00,,,0.00,105.000000,,2013-03-03 00:02:00,
2013-03-02 16:11:00,48.0,30.0,-100.00,WSW,258,6.0,11.0,49,0.00,,,0.00,105.000000,,2013-03-03 00:11:00,
2013-03-02 16:22:00,48.0,30.0,-100.00,WSW,258,6.0,11.0,49,0.00,,,0.00,105.000000,,2013-03-03 00:22:00,
2013-03-02 16:31:00,48.0,30.0,-100.00,WSW,258,6.0,11.0,49,0.00,,,0.00,105.000000,,2013-03-03 00:31:00,
2013-03-02 16:52:00,45.0,31.0,-100.00,West,266,10.0,18.0,57,0.00,,,0.00,74.000000,,2013-03-03 00:52:00,
2013-03-02 17:01:00,45.0,31.0,-100.00,West,266,10.0,18.0,57,0.00,,,0.00,74.000000,,2013-03-03 01:01:00,
2013-03-02 17:11:00,45.0,31.0,-100.00,West,266,10.0,18.0,57,0.00,,,0.00,74.000000,,2013-03-03 01:11:00,
2013-03-02 17:21:00,45.0,31.0,-100.00,West,266,10.0,18.0,57,0.00,,,0.00,74.000000,,2013-03-03 01:21:00,
2013-03-02 17:31:00,45.0,31.0,-100.00,West,266,10.0,18.0,57,0.00,,,0.00,74.000000,,2013-03-03 01:31:00,
2013-03-02 17:52:00,43.0,33.0,-100.00,WSW,255,10.0,21.0,67,0.00,,,0.00,30.000000,,2013-03-03 01:52:00,
2013-03-02 18:01:00,43.0,33.0,-100.00,WSW,255,10.0,21.0,67,0.00,,,0.00,30.000000,,2013-03-03 02:01:00,
2013-03-02 18:11:00,43.0,33.0,-100.00,WSW,255,10.0,21.0,67,0.00,,,0.00,30.000000,,2013-03-03 02:11:00,
2013-03-02 18:21:00,43.0,33.0,-100.00,WSW,255,10.0,21.0,67,0.00,,,0.00,30.000000,,2013-03-03 02:21:00,
2013-03-02 18:31:00,43.0,33.0,-100.00,WSW,255,10.0,21.0,67,0.00,,,0.00,30.000000,,2013-03-03 02:31:00,
2013-03-02 18:52:00,40.0,32.0,-100.00,WSW,254,10.0,23.0,74,0.00,,,0.00,2.000000,,2013-03-03 02:52:00,
2013-03-02 19:01:00,40.0,32.0,-100.00,WSW,254,10.0,23.0,74,0.00,,,0.00,2.000000,,2013-03-03 03:01:00,
2013-03-02 19:11:00,40.0,32.0,-100.00,WSW,254,10.0,23.0,74,0.00,,,0.00,2.000000,,2013-03-03 03:11:00,
2013-03-02 19:21:00,40.0,32.0,-100.00,WSW,254,10.0,23.0,74,0.00,,,0.00,2.000000,,2013-03-03 03:21:00,
2013-03-02 19:31:00,40.0,32.0,-100.00,WSW,254,10.0,23.0,74,0.00,,,0.00,2.000000,,2013-03-03 03:31:00,
2013-03-02 19:52:00,39.0,33.0,-100.00,West,259,9.0,19.0,80,0.00,,,0.00,0.000000,,2013-03-03 03:52:00,
2013-03-02 20:01:00,39.0,33.0,-100.00,West,259,9.0,19.0,80,0.00,,,0.00,0.000000,,2013-03-03 04:01:00,
2013-03-02 20:11:00,39.0,33.0,-100.00,West,259,9.0,19.0,80,0.00,,,0.00,0.000000,,2013-03-03 04:11:00,
2013-03-02 20:21:00,39.0,33.0,-100.00,West,259,9.0,19.0,80,0.00,,,0.00,0.000000,,2013-03-03 04:21:00,
2013-03-02 20:31:00,39.0,33.0,-100.00,West,259,9.0,19.0,80,0.00,,,0.00,0.000000,,2013-03-03 04:31:00,
2013-03-02 20:52:00,38.0,33.0,-100.00,WSW,253,9.0,18.0,81,0.00,,,0.00,0.000000,,2013-03-03 04:52:00,
2013-03-02 21:01:00,38.0,33.0,-100.00,WSW,253,9.0,18.0,81,0.00,,,0.00,0.000000,,2013-03-03 05:01:00,
2013-03-02 21:11:00,38.0,33.0,-100.00,WSW,253,9.0,18.0,81,0.00,,,0.00,0.000000,,2013-03-03 05:11:00,
2013-03-02 21:22:00,38.0,33.0,-100.00,WSW,253,9.0,18.0,81,0.00,,,0.00,0.000000,,2013-03-03 05:22:00,
2013-03-02 21:32:00,38.0,33.0,-100.00,WSW,253,9.0,18.0,81,0.00,,,0.00,0.000000,,2013-03-03 05:32:00,
2013-03-02 21:52:00,37.0,31.0,-100.00,WSW,255,8.0,20.0,80,0.00,,,0.00,0.000000,,2013-03-03 05:52:00,
2013-03-02 22:01:00,37.0,31.0,-100.00,WSW,255,8.0,20.0,80,0.00,,,0.00,0.000000,,2013-03-03 06:01:00,
2013-03-02 22:11:00,37.0,31.0,-100.00,WSW,255,8.0,20.0,80,0.00,,,0.00,0.000000,,2013-03-03 06:11:00,
2013-03-02 22:21:00,37.0,31.0,-100.00,WSW,255,8.0,20.0,80,0.00,,,0.00,0.000000,,2013-03-03 06:21:00,
2013-03-02 22:31:00,37.0,31.0,-100.00,WSW,255,8.0,20.0,80,0.00,,,0.00,0.000000,,2013-03-03 06:31:00,
2013-03-02 22:52:00,32.0,30.0,-100.00,NW,320,12.0,22.0,91,0.00,,,0.00,0.000000,,2013-03-03 06:52:00,
2013-03-02 23:01:00,32.0,30.0,-100.00,NW,320,12.0,22.0,91,0.00,,,0.00,0.000000,,2013-03-03 07:01:00,
2013-03-02 23:11:00,32.0,30.0,-100.00,NW,320,12.0,22.0,91,0.00,,,0.00,0.000000,,2013-03-03 07:11:00,
2013-03-02 23:21:00,32.0,30.0,-100.00,NW,320,12.0,22.0,91,0.00,,,0.00,0.000000,,2013-03-03 07:21:00,
2013-03-02 23:31:00,32.0,30.0,-100.00,NW,320,12.0,22.0,91,0.00,,,0.00,0.000000,,2013-03-03 07:31:00,
2013-03-02 23:52:00,31.0,26.0,-100.00,NW,307,12.0,21.0,83,0.00,,,0.00,0.000000,,2013-03-03 07:52:00,